GFSGL_850_rhum_072.txt.gz
RH
45 50 58 59 63 62 58 57 57 58 56 58 61 77 88 86 85 75 82 94 96 98 100 90 94 93 99 99 99 99 100 100 97 96 94 89 88 86 77 66 65 58 55
38 35 35 35 39 36 36 42 46 51 61 68 77 83 85 86 99 73 77 99 97 100 98 88 87 80 100 98 100 100 100 98 93 96 96 94 97 86 68 55 44 27 22
56 44 38 36 34 35 43 46 56 57 59 65 71 67 91 68 86 85 86 99 97 100 100 99 94 100 99 100 100 99 99 97 99 100 98 97 79 54 40 25 12 6 4
64 60 52 45 42 42 45 53 58 62 58 69 68 80 92 64 61 78 92 99 99 100 100 100 100 100 100 100 99 100 100 100 97 88 78 68 44 24 13 5 4 4 4
64 65 64 58 53 52 52 53 60 75 84 81 68 78 99 77 93 94 88 96 100 100 100 100 100 100 99 100 100 99 100 94 79 64 52 30 15 5 4 4 4 4 3
59 60 66 69 68 65 64 66 67 70 83 92 82 88 100 100 100 92 98 100 100 100 100 100 100 98 100 100 99 100 92 73 55 35 21 5 4 4 4 4 4 4 5
39 53 65 71 74 78 79 77 77 83 93 100 100 100 100 100 99 99 100 100 100 100 100 99 100 100 100 100 99 89 63 37 27 8 4 4 4 4 4 4 4 7 12
42 54 61 66 74 78 83 89 96 99 98 100 100 99 100 100 100 100 99 100 100 100 100 100 100 100 100 100 80 44 35 15 5 4 4 5 5 5 5 6 9 18 27
44 52 54 59 69 77 88 98 100 100 100 100 99 100 100 100 99 100 100 100 100 100 100 100 100 100 94 60 44 26 7 5 5 5 6 5 5 5 7 10 16 41 20
46 51 58 67 79 100 100 98 98 99 98 99 100 100 100 100 100 100 100 100 100 100 99 100 96 70 53 37 12 6 5 5 6 7 6 6 6 6 7 10 16 33 57
60 72 92 99 98 99 98 99 100 100 100 100 100 100 100 100 100 100 100 100 100 100 97 78 62 48 20 8 6 5 5 6 6 6 6 6 6 6 7 9 13 30 57
90 100 100 100 100 99 100 99 100 100 100 100 100 100 100 100 100 100 100 100 99 90 77 64 36 16 8 6 6 6 7 8 8 8 7 7 7 7 7 9 12 20 48
99 99 98 99 100 100 100 100 100 100 100 100 100 100 100 100 100 100 100 100 92 77 60 33 15 8 7 8 9 13 12 12 11 10 10 9 9 9 9 11 13 18 24
100 99 100 100 100 100 100 100 100 100 100 100 100 100 100 99 99 100 100 92 78 58 35 15 9 9 10 12 18 27 20 16 14 13 12 12 13 13 14 14 14 16 18
100 100 99 100 100 100 100 100 100 100 100 99 98 98 98 99 100 99 87 72 52 40 20 11 12 14 20 34 44 28 23 20 18 17 16 16 16 17 18 18 19 24 39
90 93 98 99 100 100 100 99 100 100 100 100 100 100 100 99 97 97 96 67 53 36 15 28 28 33 40 34 33 30 28 26 24 21 20 20 21 22 23 24 26 31 41
92 98 100 100 100 100 100 100 99 100 100 99 98 97 96 96 96 94 87 73 32 26 59 73 53 39 42 43 46 70 53 49 39 58 29 27 30 32 34 34 34 38 45
100 100 100 99 100 100 100 99 99 98 97 96 96 94 93 93 86 74 68 85 88 96 95 95 90 88 91 94 94 95 92 95 93 61 35 40 44 46 46 47 47 46 53
100 100 100 100 99 98 97 96 97 96 96 95 94 95 95 95 96 96 96 96 95 95 95 95 95 96 96 96 96 97 96 96 84 46 46 52 56 61 58 61 61 58 70
99 98 97 96 96 96 96 96 96 96 96 96 96 96 96 96 96 95 95 95 95 95 96 96 97 97 97 98 98 98 97 81 54 56 61 66 68 72 73 77 74 70 73
96 97 97 96 96 96 95 95 96 95 95 95 95 96 96 96 96 96 96 96 96 97 97 97 97 97 98 98 98 98 90 74 66 70 75 75 79 82 86 87 90 92 94
96 96 95 95 95 95 95 95 95 95 95 95 96 96 96 96 96 96 96 97 98 98 98 99 99 100 100 100 100 100 93 78 74 80 84 84 88 91 92 94 94 97 98
95 95 95 95 95 95 95 95 95 95 95 95 95 96 96 96 96 97 98 99 100 100 100 100 100 99 99 100 100 100 96 81 80 88 91 92 94 94 98 98 98 100 100
95 94 94 94 94 93 93 93 93 94 95 95 95 94 93 92 93 95 96 96 95 93 92 92 89 87 89 94 96 95 87 80 91 98 100 100 99 98 100 100 99 100 100
93 93 93 93 93 91 89 86 84 82 81 81 82 82 84 86 87 90 93 94 94 91 89 89 88 88 87 85 82 80 78 84 99 100 100 100 100 100 100 100 100 100 100
65 63 60 59 56 57 57 59 60 63 64 65 67 70 74 77 82 88 90 90 87 85 83 82 81 80 80 79 79 79 82 97 100 100 100 100 100 100 100 100 100 100 99

GFSGL_850_rhum_075.txt.gz
RH
37 47 52 52 55 60 60 62 64 68 65 61 58 59 63 63 58 55 62 82 85 93 79 69 87 91 99 99 99 98 100 99 99 99 94 92 88 89 91 89 81 50 42
35 31 41 50 48 44 37 35 41 47 49 53 56 53 53 54 55 59 77 83 90 98 86 82 88 100 98 92 98 98 100 100 100 100 98 94 98 88 89 67 45 32 12
56 47 36 37 49 45 44 44 44 44 44 47 50 50 49 61 75 83 86 87 100 92 87 98 93 100 97 97 100 100 100 99 100 100 99 99 93 76 53 36 17 5 4
64 63 56 44 35 35 40 46 50 44 44 47 52 56 61 69 75 79 88 78 96 100 97 94 95 100 100 100 100 98 100 100 100 100 99 98 73 47 27 9 4 5 6
58 66 64 62 55 44 41 42 43 48 46 48 51 54 62 74 87 88 87 81 84 87 82 88 99 100 100 100 98 99 100 99 100 100 98 71 43 22 5 5 5 5 5
52 49 57 63 65 63 57 50 48 50 53 58 63 66 81 78 76 81 99 91 99 92 90 100 100 100 100 100 100 98 100 99 99 99 66 34 15 4 5 5 5 5 12
35 42 52 60 64 66 66 67 66 63 64 68 75 84 86 93 94 98 100 100 100 99 100 100 100 100 100 100 100 99 100 99 96 52 29 9 4 5 5 5 5 6 7
32 37 45 53 63 70 73 72 76 80 83 83 89 97 91 96 98 100 100 100 100 100 100 100 100 100 100 100 100 100 100 78 39 20 5 5 5 6 5 5 5 6 6
30 34 40 50 68 73 78 81 87 99 100 99 99 99 99 100 99 99 100 100 100 100 100 100 100 100 100 100 100 96 59 33 12 5 5 5 6 5 5 5 6 6 10
30 43 48 52 58 69 78 98 100 100 100 100 100 100 100 100 100 99 100 100 100 100 99 100 100 100 100 98 84 44 18 8 6 7 8 7 6 6 6 5 5 7 12
40 42 60 77 83 96 100 98 99 99 100 100 100 100 100 100 100 100 100 100 100 100 100 99 100 99 88 61 32 12 7 6 7 7 7 7 6 6 6 6 6 7 8
67 75 82 98 100 98 99 98 100 100 100 100 100 100 100 100 100 100 99 100 100 100 100 98 88 76 48 23 10 7 7 7 8 10 14 10 8 7 7 7 7 7 8
73 80 97 99 99 99 98 99 100 100 100 100 100 100 100 100 100 100 100 100 100 99 93 83 60 36 18 10 8 10 11 15 45 35 15 11 9 10 10 9 10 11 9
99 100 99 100 99 99 100 100 100 100 99 100 100 100 99 99 100 100 100 100 100 96 82 54 31 16 11 12 14 16 37 63 33 17 14 18 18 16 16 28 26 12 11
99 100 100 99 100 100 99 99 100 100 100 100 100 100 100 99 99 100 100 100 97 87 73 45 24 15 20 32 30 41 51 31 24 34 40 26 52 52 67 36 18 19 20
100 100 100 100 100 100 100 99 100 100 99 100 100 100 99 99 99 98 97 97 96 95 94 78 52 54 53 50 57 57 42 35 68 90 87 93 92 90 63 37 26 35 36
98 96 97 100 100 100 100 100 99 100 100 99 98 98 98 97 97 96 96 95 94 94 80 38 45 68 79 86 70 65 76 95 94 95 95 95 94 83 52 44 44 72 72
100 98 100 100 100 100 100 100 100 99 98 97 97 97 97 97 96 96 95 93 84 86 92 92 93 95 97 98 97 97 96 95 95 96 96 96 95 86 61 73 85 100 100
98 99 100 100 99 98 98 97 97 97 97 97 96 96 96 96 95 94 93 90 89 90 91 93 93 95 95 95 96 97 96 95 96 97 97 97 96 75 77 88 100 89 81
100 100 98 96 97 97 97 96 96 96 96 96 95 95 94 93 92 92 93 94 94 94 94 95 96 97 98 97 96 96 96 97 98 100 100 99 94 93 97 100 100 100 100
97 96 97 97 96 96 96 95 95 93 90 90 91 94 94 94 95 95 96 95 95 96 96 97 98 98 98 98 98 100 100 100 100 100 100 100 100 98 95 100 100 100 100
96 95 96 96 95 96 95 94 94 93 94 94 95 96 97 95 95 95 95 95 96 96 96 96 98 97 98 98 97 97 98 97 98 100 100 91 96 100 100 100 100 100 100
96 95 95 94 94 94 94 94 94 95 95 95 96 96 95 94 94 93 93 94 95 95 95 93 91 88 86 84 82 85 91 97 99 95 89 99 100 100 100 100 100 100 100
95 95 95 95 95 94 94 93 93 92 90 86 83 80 77 75 74 76 78 80 81 81 80 79 77 76 77 77 79 80 81 83 86 87 95 100 100 100 100 100 100 100 100
93 91 88 84 79 71 65 61 58 55 53 51 52 53 55 58 60 63 66 69 71 72 72 72 71 69 68 69 72 75 76 78 82 93 100 100 100 100 100 100 100 100 100
30 31 32 34 33 34 35 36 38 42 44 46 49 52 55 58 60 62 64 64 64 63 63 64 65 67 68 69 71 72 73 79 92 100 100 100 100 100 100 100 100 100 100

GFSGL_850_rhum_078.txt.gz
RH
89 95 94 90 97 98 95 94 94 94 93 90 92 92 89 90 89 90 90 93 94 67 57 71 82 87 86 90 85 99 100 99 99 99 98 96 93 90 92 91 96 91 90
59 78 68 77 92 93 82 75 75 77 85 92 89 87 88 88 87 86 89 67 68 59 58 64 77 95 88 98 96 100 99 99 99 100 96 99 95 99 95 98 97 86 56
78 62 72 65 73 69 61 85 96 95 91 92 92 91 87 86 84 83 63 58 57 64 75 72 93 100 86 85 94 92 96 96 100 100 96 100 100 100 97 98 81 49 19
74 67 65 47 41 44 50 68 82 90 90 91 92 90 89 85 88 58 64 73 70 74 79 78 94 86 87 100 100 98 100 100 100 98 100 99 100 98 96 75 46 27 5
77 77 59 56 60 61 63 56 55 69 80 82 79 76 74 84 63 56 56 68 74 79 85 78 86 94 99 100 100 100 100 100 100 99 100 100 99 97 68 43 25 20 10
60 58 74 77 68 61 57 63 73 69 77 86 90 74 57 58 50 52 57 66 70 90 91 88 89 100 100 100 100 100 100 100 99 100 100 100 92 67 38 18 36 39 50
40 53 65 75 70 76 79 84 77 84 86 82 78 64 70 71 48 55 69 79 77 82 95 92 98 100 100 100 100 100 100 100 100 100 99 93 55 36 17 22 39 61 61
44 41 49 61 64 80 83 85 83 91 89 92 93 96 94 77 63 75 86 98 100 100 100 100 100 100 100 100 100 100 100 100 100 100 80 47 19 7 6 8 30 35 43
30 42 45 48 62 73 76 83 97 98 98 99 99 95 94 96 98 100 100 100 100 100 100 100 100 100 100 100 96 100 100 100 94 66 37 11 5 5 6 6 12 60 68
28 40 71 71 66 83 94 98 92 87 96 98 99 100 100 100 100 100 100 100 100 100 100 100 100 100 100 100 100 100 98 80 44 15 6 6 6 6 6 6 8 19 66
70 64 73 82 81 83 80 82 86 93 98 100 100 100 100 100 100 100 100 100 100 100 100 100 100 99 100 99 98 87 54 24 9 7 7 7 7 7 7 8 9 14 52
79 72 68 67 64 71 97 99 99 100 100 100 99 99 100 100 100 100 100 100 100 100 100 100 99 99 98 94 63 24 11 8 8 8 8 12 25 24 15 13 12 13 16
97 94 87 92 100 98 98 100 100 100 100 100 99 100 100 100 100 100 100 100 100 100 100 100 98 97 80 32 15 9 8 8 9 23 50 46 38 30 20 16 17 17 20
100 100 100 100 100 100 98 100 100 100 100 100 100 100 100 100 100 99 99 100 100 98 98 97 95 51 20 14 11 14 36 71 65 62 57 50 29 29 39 39 47 60 68
100 100 99 100 100 99 100 100 99 100 100 100 100 100 99 100 100 100 100 98 98 97 96 94 78 78 84 91 95 87 74 68 67 62 48 60 88 97 99 100 100 98 98
100 100 100 100 100 100 100 98 99 100 100 100 100 100 100 100 98 98 97 96 96 96 93 94 95 96 97 96 99 100 97 89 92 94 100 100 100 100 100 100 100 100 100
100 100 100 100 100 100 100 100 98 100 100 100 100 99 99 97 97 97 96 95 94 93 95 95 95 95 98 100 100 100 100 99 98 100 100 100 100 100 100 100 100 100 100
100 100 99 99 100 99 98 98 99 99 98 97 97 97 97 97 96 95 95 95 95 96 96 98 100 100 100 100 100 100 100 100 100 100 100 100 100 100 100 100 100 100 100
100 100 100 100 99 99 98 99 97 97 96 95 96 96 95 95 95 95 96 98 100 100 100 100 100 100 100 100 100 100 100 100 100 100 100 100 100 100 100 100 100 100 100
98 98 98 96 96 96 96 96 97 96 96 95 95 95 96 98 97 98 100 100 100 100 100 100 100 100 100 100 100 100 100 100 100 100 100 100 100 100 100 100 100 100 100
96 96 96 96 96 96 96 95 95 96 96 95 95 95 96 96 100 100 100 100 100 100 100 100 100 100 100 100 100 100 100 100 100 100 100 100 100 100 100 100 100 100 100
96 96 96 96 96 95 95 95 95 95 95 95 96 96 97 98 100 100 100 91 88 90 92 94 100 100 100 100 100 100 100 100 100 100 100 100 100 100 100 100 100 100 100
96 96 96 95 96 96 96 96 96 97 98 100 100 100 99 100 100 100 96 90 83 70 59 66 70 82 93 95 86 100 100 100 100 100 100 100 100 100 100 100 100 100 100
95 95 95 95 96 95 97 99 97 95 100 100 100 100 100 95 87 63 54 50 53 61 59 55 57 58 58 59 64 84 98 99 87 87 100 100 100 100 100 100 100 100 100
78 75 71 66 59 56 52 52 53 60 67 85 100 100 100 99 90 85 66 56 52 54 55 55 56 58 58 58 60 62 64 65 68 73 82 94 100 100 100 100 100 100 100
20 20 21 24 24 28 35 38 45 52 58 66 86 86 82 81 69 55 54 53 52 54 54 55 56 57 59 60 62 63 64 66 72 88 95 95 99 100 100 100 100 100 100

GFSGL_850_rhum_084.txt.gz
RH
89 98 99 98 95 93 89 89 82 77 56 47 39 47 59 71 71 70 68 65 68 67 68 68 71 67 73 75 75 76 76 77 79 84 73 84 80 90 95 86 85 84 82
83 86 90 99 98 99 92 92 90 94 75 55 46 47 60 66 71 70 70 65 68 80 81 72 77 72 72 76 77 79 80 81 84 97 92 91 83 89 97 94 86 83 89
74 82 87 87 96 96 95 95 94 94 94 81 66 76 66 67 67 64 65 70 71 71 76 88 85 80 82 79 81 81 88 88 96 100 100 99 96 90 100 98 94 92 92
69 75 85 87 88 89 89 93 96 97 94 95 94 89 92 94 86 83 83 87 82 76 80 80 79 90 87 88 91 84 84 91 98 100 100 99 96 95 99 97 97 97 96
67 68 75 82 87 93 98 96 86 92 94 94 95 92 89 96 94 86 89 88 74 78 84 90 93 87 85 81 82 78 70 78 98 100 92 98 100 100 98 96 99 100 100
72 68 70 76 84 87 89 94 95 89 90 90 96 96 94 90 90 87 82 85 89 92 90 86 85 84 85 90 92 83 94 100 90 98 100 98 99 100 100 100 100 100 99
67 74 77 73 76 85 92 91 88 95 97 97 92 90 89 86 85 84 84 90 92 92 93 92 93 93 89 89 90 99 94 100 100 99 100 100 100 100 100 99 100 99 99
59 69 77 80 78 80 90 93 91 89 92 97 99 99 98 94 94 93 94 94 94 93 95 95 96 96 94 99 100 98 100 100 100 100 100 100 100 100 100 100 100 100 98
54 60 69 78 82 83 84 89 94 96 97 96 97 98 98 96 96 93 93 94 92 92 93 96 98 100 100 100 100 100 100 100 100 100 100 100 100 100 100 99 97 95 86
46 57 61 69 74 79 83 86 92 95 95 98 99 99 98 97 96 96 97 92 92 91 93 97 100 100 100 100 100 100 100 100 100 100 100 100 100 100 98 96 66 29 14
61 47 61 61 65 71 76 82 86 90 94 93 94 98 96 99 100 100 100 98 98 100 100 100 100 100 100 100 100 100 100 100 100 98 97 96 95 77 28 18 29 36 52
89 77 62 68 70 70 73 79 85 88 96 96 97 97 100 97 100 100 100 100 100 100 100 100 100 100 100 100 100 100 99 100 98 96 93 68 82 94 96 93 88 60 40
98 91 91 85 76 74 82 83 81 88 92 96 95 93 100 100 100 100 100 100 100 100 100 100 100 100 100 100 100 100 98 97 92 89 95 95 95 94 92 90 90 95 93
80 98 100 100 100 100 100 100 100 98 99 100 99 99 99 100 100 100 99 100 100 100 99 98 100 100 100 98 97 97 97 96 96 95 95 95 95 96 95 95 93 92 93
86 84 98 99 100 100 100 100 100 100 100 100 100 100 100 86 92 99 99 100 98 99 99 98 97 97 96 96 95 96 96 95 95 95 95 95 95 95 96 96 94 92 94
100 88 92 98 100 99 100 99 98 99 98 100 100 99 98 100 97 95 96 97 96 97 96 96 96 95 95 96 96 95 95 95 95 94 93 90 90 91 92 88 87 90 95
99 98 100 98 98 100 96 94 92 99 98 94 100 98 98 95 97 96 96 96 95 96 95 95 95 95 95 95 96 96 95 95 92 89 90 89 88 89 91 94 92 90 90
100 100 98 99 98 97 99 97 95 94 96 95 96 97 96 96 96 96 96 96 96 96 95 94 94 94 94 94 94 94 96 94 90 86 84 88 90 91 90 88 89 91 95
100 99 98 97 97 97 94 96 94 94 95 96 95 96 96 96 96 95 96 95 95 95 95 95 95 95 95 94 91 89 90 93 89 94 91 94 93 90 91 93 92 91 92
94 95 96 97 96 98 96 96 96 95 96 96 96 95 95 95 94 94 94 95 95 96 95 95 95 93 92 92 93 92 90 90 93 90 92 92 94 94 98 98 96 94 92
96 97 96 95 96 96 96 96 96 95 94 95 96 96 95 94 95 95 95 95 95 96 96 95 91 85 79 74 76 82 84 85 90 94 99 98 97 97 99 98 96 94 94
97 97 96 96 96 96 96 96 95 96 96 96 97 96 96 95 95 95 92 84 78 71 68 76 77 65 58 49 50 56 81 99 100 94 77 67 74 93 100 100 99 95 91
96 95 95 95 96 96 94 95 96 95 95 95 95 95 95 95 88 76 72 74 55 41 40 43 46 47 49 49 52 65 75 66 55 52 53 55 64 90 94 99 100 99 97
94 94 94 95 96 98 100 100 100 100 100 100 95 95 97 97 83 65 54 55 58 57 50 49 53 51 44 45 46 46 46 49 53 54 55 57 63 69 78 88 95 98 99
59 65 70 78 84 81 76 84 87 93 96 99 100 100 100 98 91 79 60 46 44 45 51 52 46 45 44 47 45 47 54 54 52 53 55 65 72 75 80 94 100 100 100
62 77 88 93 98 100 100 100 100 100 100 100 100 100 96 88 93 75 50 49 48 46 48 48 48 50 51 52 52 55 52 53 55 61 70 73 74 77 90 100 100 100 100

GFSGL_850_rhum_087.txt.gz
RH
80 98 97 97 98 94 94 90 81 77 70 68 60 62 62 58 66 70 63 67 68 73 74 75 73 68 69 64 66 74 79 85 91 77 73 75 86 90 91 92 90 92 97
84 81 98 98 99 95 89 86 84 81 78 70 62 62 64 66 66 67 62 63 73 71 71 73 68 71 71 70 72 74 75 73 80 84 74 70 84 94 98 100 94 88 94
70 83 84 98 98 99 96 90 88 85 88 80 71 66 61 52 56 55 55 59 62 70 70 68 67 70 69 72 71 69 72 71 73 81 80 80 73 88 97 100 98 97 92
68 81 85 82 81 95 99 96 93 94 87 89 86 86 82 63 45 46 52 51 56 70 70 69 71 70 69 78 76 70 71 82 78 76 84 83 73 74 97 99 100 94 100
66 66 75 82 80 80 80 88 95 98 95 92 91 91 89 82 68 49 45 50 60 65 65 67 69 73 67 71 73 75 77 88 82 80 82 87 86 82 86 92 100 99 99
64 64 62 68 81 85 84 82 85 89 91 96 99 94 91 86 80 75 66 57 62 65 73 78 73 69 67 69 75 79 87 91 83 91 98 100 94 98 100 99 100 100 100
60 64 67 66 66 78 89 93 91 91 91 92 93 100 99 94 89 88 86 89 93 92 85 80 81 76 72 78 88 96 95 95 96 99 99 97 100 99 100 100 100 99 100
81 68 62 70 72 72 79 85 91 98 99 96 93 92 96 96 96 95 95 99 98 97 97 92 89 85 84 91 92 93 98 100 100 99 100 100 100 100 100 100 100 100 100
80 89 91 90 79 78 76 74 80 93 95 96 99 98 95 91 95 97 100 100 100 97 97 96 94 94 94 94 99 100 100 100 100 100 100 100 100 100 100 99 100 100 100
71 70 77 79 86 86 81 78 78 84 90 94 92 93 96 98 99 100 100 100 100 100 100 99 99 98 99 97 96 98 100 100 100 100 100 99 100 100 100 99 98 98 96
87 83 76 73 72 88 88 86 84 85 90 95 98 98 98 100 100 100 100 100 100 98 97 99 97 96 99 100 100 100 100 100 100 99 100 100 97 96 94 95 96 92 85
84 89 89 76 93 95 90 91 91 87 88 92 95 100 100 100 100 99 99 100 100 100 100 100 100 100 100 100 100 100 100 99 97 97 96 98 97 96 96 96 96 97 96
82 79 82 94 98 99 99 100 100 100 99 99 100 100 100 100 100 100 100 99 100 100 100 100 100 100 100 100 100 100 99 98 99 97 98 93 95 96 95 93 96 95 95
86 78 73 70 68 75 99 100 99 100 100 100 100 100 100 100 100 100 100 100 100 99 99 94 98 99 97 96 98 97 96 98 96 96 98 95 95 92 92 94 95 92 90
100 92 86 87 85 87 77 85 95 95 98 100 100 99 97 98 98 100 100 99 97 97 97 95 95 95 96 94 95 96 96 95 96 96 96 95 94 94 95 95 86 80 78
100 100 100 98 99 98 100 95 92 97 95 98 98 97 97 96 95 96 97 97 97 97 97 96 96 96 95 94 96 96 95 95 96 95 94 94 92 86 80 75 73 73 74
100 100 99 100 100 98 95 97 95 98 97 93 95 97 98 95 96 95 90 91 95 96 95 96 95 95 95 96 95 95 95 95 90 78 77 74 72 70 65 59 59 65 68
100 100 99 99 97 96 95 95 96 98 96 97 95 92 98 96 96 94 95 96 96 96 94 95 95 95 95 95 95 95 95 90 83 76 71 60 54 55 50 49 54 61 66
98 99 98 97 96 94 94 94 94 94 96 94 96 95 96 97 96 96 97 94 94 94 95 95 95 95 95 95 91 85 82 74 64 58 52 48 43 40 46 56 62 71 76
95 96 96 96 96 96 96 95 95 96 96 96 96 97 97 96 96 96 96 95 95 95 96 95 94 91 86 83 76 67 59 53 50 49 46 45 50 52 53 58 68 79 86
96 96 97 97 97 96 96 96 97 95 94 95 95 95 95 94 95 95 95 95 94 92 87 82 77 66 54 45 42 39 37 37 40 42 43 45 46 50 56 70 84 90 93
94 95 96 95 96 95 95 95 95 94 94 94 96 95 95 95 94 92 89 89 88 78 66 59 49 43 38 36 34 32 33 35 39 42 44 46 48 51 56 66 78 88 90
95 94 95 95 96 96 96 96 96 96 96 96 96 95 88 70 55 47 41 44 45 40 40 37 36 36 35 36 36 36 40 43 44 46 48 49 51 55 60 66 76 82 88
95 95 95 95 95 94 93 94 94 91 84 78 70 63 59 57 53 49 45 43 40 36 34 34 34 35 35 37 40 44 48 48 47 46 47 49 57 65 67 68 75 82 89
54 62 67 71 73 77 78 83 86 88 89 88 85 80 71 57 48 44 43 39 37 38 39 40 42 42 40 44 46 46 43 43 46 47 50 58 64 66 70 76 81 88 94
51 59 67 71 73 74 76 80 85 86 82 75 74 80 71 51 47 50 47 45 44 45 46 46 46 48 46 46 46 45 45 47 49 54 64 70 74 78 79 80 85 89 91